When you browse on this site, cookies collect data to enhance your experience and personalize the content and advertising you see.
Visit our Privacy Policy to learn more. By continuing to use the site, you agree to this use of cookies and data.
  • In Austria
  • List of Countries
  • For 7 days
  • Water Temperature
  • Weather Map
  • News
  • Weather Widgets
  • user-avatar
    Login

    Hourly Weather Lenguazaque

    Today, 21 November, Thursday

    Time Temperature Precipitation Wind Pressure Humidity
    00:00 +9°C° 0.1 mm 0 mps 551 mmHg 96%
    01:00 +9°C° 0.1 mm 0 mps 551 mmHg 96%
    02:00 +9°C° 0 mm 0 mps 551 mmHg 95%
    03:00 +9°C° 0 mm 0 mps 550 mmHg 95%
    04:00 +8°C° 0 mm 0 mps 550 mmHg 94%
    05:00 +9°C° 0 mm 0 mps 551 mmHg 92%
    06:00 +10°C° 0 mm 0 mps 552 mmHg 90%
    07:00 +10°C° 0 mm 0 mps 552 mmHg 89%
    08:00 +13°C° 0 mm 0 mps 554 mmHg 80%
    09:00 +15°C° 0 mm 0 mps 555 mmHg 72%
    10:00 +18°C° 0 mm 0 mps 556 mmHg 64%
    11:00 +19°C° 0.5 mm 1 mps 555 mmHg 69%
    12:00 +19°C° 0.5 mm 1 mps 554 mmHg 73%
    13:00 +18°C° 0.5 mm 1 mps 553 mmHg 78%
    14:00 +18°C° 1.4 mm 1 mps 553 mmHg 82%
    15:00 +16°C° 1.4 mm 1 mps 552 mmHg 86%
    16:00 +15°C° 1.4 mm 1 mps 552 mmHg 89%
    17:00 +14°C° 0.8 mm 1 mps 551 mmHg 92%
    18:00 +12°C° 0.8 mm 0 mps 551 mmHg 95%
    19:00 +11°C° 0.8 mm 0 mps 551 mmHg 97%
    20:00 +11°C° 0.7 mm 0 mps 551 mmHg 97%
    21:00 +10°C° 0.7 mm 0 mps 551 mmHg 96%
    22:00 +10°C° 0.7 mm 0 mps 552 mmHg 95%
    23:00 +10°C° 0.1 mm 0 mps 551 mmHg 95%

    Tomorrow, 22 November, Friday

    Time Temperature Precipitation Wind Pressure Humidity
    00:00 +9°C° 0.1 mm 0 mps 551 mmHg 95%
    01:00 +9°C° 0.1 mm 0 mps 550 mmHg 95%
    02:00 +9°C° 0 mm 0 mps 550 mmHg 95%
    03:00 +8°C° 0 mm 0 mps 550 mmHg 94%
    04:00 +8°C° 0 mm 0 mps 549 mmHg 94%
    05:00 +9°C° 0 mm 0 mps 550 mmHg 93%
    06:00 +10°C° 0 mm 0 mps 551 mmHg 91%
    07:00 +11°C° 0 mm 0 mps 552 mmHg 89%
    08:00 +13°C° 0.1 mm 0 mps 553 mmHg 81%
    09:00 +16°C° 0.1 mm 0 mps 555 mmHg 73%
    10:00 +18°C° 0.1 mm 0 mps 556 mmHg 65%
    11:00 +19°C° 1 mm 1 mps 555 mmHg 70%
    12:00 +19°C° 1 mm 1 mps 554 mmHg 76%
    13:00 +18°C° 1 mm 1 mps 553 mmHg 81%
    14:00 +18°C° 1.6 mm 1 mps 552 mmHg 85%
    15:00 +16°C° 1.6 mm 1 mps 551 mmHg 89%
    16:00 +15°C° 1.6 mm 1 mps 551 mmHg 92%
    17:00 +14°C° 0.7 mm 1 mps 551 mmHg 93%
    18:00 +13°C° 0.7 mm 1 mps 551 mmHg 95%
    19:00 +12°C° 0.7 mm 1 mps 551 mmHg 96%
    20:00 +12°C° 0.1 mm 1 mps 551 mmHg 96%
    21:00 +12°C° 0.1 mm 1 mps 551 mmHg 95%
    22:00 +10°C° 0.1 mm 0 mps 551 mmHg 95%
    23:00 +10°C° 0.1 mm 0 mps 551 mmHg 94%

    Day after tomorrow, 23 November, Saturday

    Time Temperature Precipitation Wind Pressure Humidity
    00:00 +10°C° 0.1 mm 0 mps 551 mmHg 94%
    01:00 +10°C° 0.1 mm 0 mps 551 mmHg 94%
    02:00 +10°C° 0 mm 0 mps 550 mmHg 94%
    03:00 +9°C° 0 mm 0 mps 550 mmHg 94%
    04:00 +9°C° 0 mm 0 mps 550 mmHg 95%
    05:00 +9°C° 0 mm 0 mps 550 mmHg 94%
    06:00 +10°C° 0 mm 0 mps 551 mmHg 93%
    07:00 +11°C° 0 mm 0 mps 552 mmHg 92%
    08:00 +13°C° 0 mm 0 mps 553 mmHg 82%
    09:00 +18°C° 0 mm 1 mps 555 mmHg 72%
    10:00 +20°C° 0 mm 1 mps 556 mmHg 62%
    11:00 +20°C° 0.6 mm 1 mps 555 mmHg 68%
    12:00 +19°C° 0.6 mm 1 mps 554 mmHg 74%
    13:00 +18°C° 0.6 mm 1 mps 553 mmHg 81%
    14:00 +16°C° 1.5 mm 1 mps 552 mmHg 85%
    15:00 +16°C° 1.5 mm 1 mps 552 mmHg 88%
    16:00 +15°C° 1.5 mm 1 mps 551 mmHg 92%
    17:00 +14°C° 0.8 mm 1 mps 551 mmHg 94%
    18:00 +13°C° 0.8 mm 1 mps 551 mmHg 96%
    19:00 +11°C° 0.8 mm 0 mps 551 mmHg 98%
    20:00 +11°C° 1.8 mm 0 mps 551 mmHg 97%
    21:00 +11°C° 1.8 mm 0 mps 552 mmHg 97%
    22:00 +11°C° 1.8 mm 0 mps 552 mmHg 96%
    23:00 +11°C° 0.7 mm 0 mps 552 mmHg 96%

    24 November, Sunday

    Time Temperature Precipitation Wind Pressure Humidity
    00:00 +11°C° 0.7 mm 0 mps 551 mmHg 96%
    01:00 +11°C° 0.7 mm 0 mps 551 mmHg 96%
    02:00 +10°C° 0 mm 0 mps 551 mmHg 95%
    03:00 +10°C° 0 mm 0 mps 550 mmHg 95%
    04:00 +9°C° 0 mm 0 mps 550 mmHg 95%
    05:00 +10°C° 0 mm 0 mps 550 mmHg 94%
    06:00 +10°C° 0 mm 0 mps 551 mmHg 93%
    07:00 +11°C° 0 mm 0 mps 552 mmHg 92%
    08:00 +13°C° 0.1 mm 0 mps 553 mmHg 85%
    09:00 +16°C° 0.1 mm 1 mps 554 mmHg 78%
    10:00 +19°C° 0.1 mm 1 mps 555 mmHg 71%
    11:00 +19°C° 0.6 mm 1 mps 555 mmHg 73%
    12:00 +19°C° 0.6 mm 1 mps 554 mmHg 75%
    13:00 +19°C° 0.6 mm 1 mps 553 mmHg 77%
    14:00 +18°C° 1 mm 1 mps 552 mmHg 81%
    15:00 +16°C° 1 mm 1 mps 552 mmHg 84%
    16:00 +16°C° 1 mm 1 mps 551 mmHg 88%
    17:00 +15°C° 0.7 mm 1 mps 551 mmHg 91%
    18:00 +13°C° 0.7 mm 0 mps 551 mmHg 94%
    19:00 +12°C° 0.7 mm 0 mps 551 mmHg 98%
    20:00 +12°C° 0.4 mm 0 mps 551 mmHg 98%
    21:00 +12°C° 0.4 mm 1 mps 552 mmHg 98%
    22:00 +12°C° 0.4 mm 1 mps 552 mmHg 98%
    23:00 +12°C° 0.1 mm 1 mps 552 mmHg 97%

    25 November, Monday

    Time Temperature Precipitation Wind Pressure Humidity
    00:00 +11°C° 0.1 mm 0 mps 551 mmHg 96%
    01:00 +11°C° 0.1 mm 0 mps 551 mmHg 96%
    02:00 +10°C° 0 mm 0 mps 550 mmHg 95%
    03:00 +9°C° 0 mm 0 mps 550 mmHg 95%
    04:00 +9°C° 0 mm 0 mps 549 mmHg 95%
    05:00 +9°C° 0 mm 0 mps 550 mmHg 94%
    06:00 +10°C° 0 mm 0 mps 551 mmHg 92%
    07:00 +11°C° 0 mm 0 mps 551 mmHg 90%
    08:00 +14°C° 0 mm 1 mps 552 mmHg 81%
    09:00 +16°C° 0 mm 1 mps 554 mmHg 72%
    10:00 +19°C° 0 mm 1 mps 555 mmHg 64%
    11:00 +20°C° 0.2 mm 1 mps 554 mmHg 64%
    12:00 +19°C° 0.2 mm 2 mps 553 mmHg 65%
    13:00 +19°C° 0.2 mm 2 mps 553 mmHg 66%
    14:00 +19°C° 0.6 mm 2 mps 552 mmHg 73%
    15:00 +18°C° 0.6 mm 2 mps 551 mmHg 79%
    16:00 +17°C° 0.6 mm 2 mps 550 mmHg 86%
    17:00 +15°C° 0.5 mm 1 mps 550 mmHg 89%
    18:00 +14°C° 0.5 mm 1 mps 550 mmHg 93%
    19:00 +12°C° 0.5 mm 1 mps 550 mmHg 97%
    20:00 +12°C° 0.1 mm 1 mps 550 mmHg 97%
    21:00 +12°C° 0.1 mm 1 mps 550 mmHg 97%
    22:00 +12°C° 0.1 mm 1 mps 551 mmHg 96%
    23:00 +11°C° 0 mm 1 mps 550 mmHg 96%

    26 November, Tuesday

    Time Temperature Precipitation Wind Pressure Humidity
    00:00 +11°C° 0 mm 1 mps 550 mmHg 96%
    01:00 +10°C° 0 mm 1 mps 549 mmHg 96%
    02:00 +10°C° 0 mm 1 mps 549 mmHg 96%
    03:00 +10°C° 0 mm 1 mps 549 mmHg 96%
    04:00 +10°C° 0 mm 1 mps 549 mmHg 95%
    05:00 +11°C° 0 mm 1 mps 549 mmHg 95%
    06:00 +11°C° 0 mm 1 mps 550 mmHg 94%
    07:00 +12°C° 0 mm 1 mps 551 mmHg 93%
    08:00 +14°C° 0.1 mm 1 mps 552 mmHg 87%
    09:00 +16°C° 0.1 mm 1 mps 553 mmHg 80%
    10:00 +18°C° 0.1 mm 2 mps 554 mmHg 74%
    11:00 +18°C° 0.8 mm 2 mps 554 mmHg 76%
    12:00 +18°C° 0.8 mm 2 mps 553 mmHg 78%
    13:00 +18°C° 0.8 mm 2 mps 552 mmHg 79%
    14:00 +18°C° 0.8 mm 2 mps 552 mmHg 81%
    15:00 +17°C° 0.8 mm 2 mps 551 mmHg 83%
    16:00 +16°C° 0.8 mm 1 mps 550 mmHg 86%
    17:00 +15°C° 0.3 mm 1 mps 550 mmHg 89%
    18:00 +14°C° 0.3 mm 1 mps 550 mmHg 93%
    19:00 +12°C° 0.3 mm 1 mps 550 mmHg 97%
    20:00 +12°C° 0.1 mm 1 mps 550 mmHg 97%
    21:00 +12°C° 0.1 mm 1 mps 550 mmHg 97%
    22:00 +11°C° 0.1 mm 1 mps 550 mmHg 97%
    23:00 +11°C° 0 mm 1 mps 550 mmHg 96%
    Show more